This demonstration page uses our WeatherBlox Daily Observations layout. Learn more.

Left ArrowRight Arrow

34.02893, -84.19858

Hourly Observations for May 12, 2015

Temp ( °F °C ) Dew Point ( °F °C ) Humidity (%) Winds ( mph kmh ) Pressure ( in mb ) Visibility ( mi km ) Precip ( " mm )
12:53 am 00:53 Clear 73 22.8 61 16.1 66 66 Calm 30.06 1018 8 13 0.00 0.00
1:53 am 01:53 Clear 72 22.2 61 16.1 68 68 W 6 9 30.06 1018 8 13 0.00 0.00
2:53 am 02:53 Clear 71 21.7 61 16.1 71 71 WNW 5 7 30.06 1018 7 11 0.00 0.00
3:53 am 03:53 Clear 70 21.1 61 16.1 73 73 undefined N/A 30.06 1018 7 11 0.00 0.00
4:53 am 04:53 Hazy 67 19.4 61 16.1 81 81 SSW 5 7 30.07 1018 6 10 0.00 0.00
5:53 am 05:53 Hazy 71 21.7 62 16.7 73 73 WNW 9 15 30.09 1019 6 10 0.00 0.00
6:53 am 06:53 Partly Cloudy 70 21.1 61 16.1 73 73 WNW 12 19 30.11 1020 8 13 0.00 0.00
7:53 am 07:53 Mostly Sunny 69 20.6 63 17.2 81 81 W 5 7 30.12 1020 8 13 0.00 0.03
8:53 am 08:53 Mostly Cloudy 71 21.7 65 18.3 81 81 WNW 7 11 30.14 1021 7 11 0.00 0.00
9:53 am 09:53 Cloudy with Light Rain 71 21.7 66 18.9 84 84 W 6 9 30.15 1021 5 8 0.00 0.03
10:53 am 10:53 Mostly Cloudy with Haze 75 23.9 65 18.3 71 71 W 7 11 30.15 1021 6 10 0.00 0.03
11:53 am 11:53 Sunny 79 26.1 65 18.3 62 62 WNW 6 9 30.15 1021 7 11 0.00 0.00
12:53 pm 12:53 Mostly Sunny 81 27.2 64 17.8 57 57 W 10 17 30.14 1021 7 11 0.00 0.00
1:53 pm 13:53 Mostly Sunny 83 28.3 65 18.3 55 55 WNW 10 17 30.13 1020 7 11 0.00 0.00
2:53 pm 14:53 Sunny 85 29.4 65 18.3 51 51 W 10 17 30.11 1020 7 11 0.00 0.00
3:53 pm 15:53 Partly Cloudy 83 28.3 63 17.2 51 51 W 12 19 30.10 1019 7 11 0.00 0.00
4:53 pm 16:53 Sunny 82 27.8 62 16.7 51 51 WNW 10 17 30.09 1019 8 13 0.00 0.00
5:53 pm 17:53 Sunny 80 26.7 58 14.4 47 47 W 12 19 30.09 1019 9 14 0.00 0.00
6:53 pm 18:53 Sunny 79 26.1 57 13.9 47 47 W 7 11 30.09 1019 10 16 0.00 0.00
7:53 pm 19:53 Sunny 77 25 59 15 54 54 WNW 7 11 30.10 1019 9 14 0.00 0.00
8:53 pm 20:53 Clear 76 24.4 60 15.6 58 58 WNW 8 13 30.11 1020 10 16 0.00 0.00
9:53 pm 21:53 Clear 74 23.3 60 15.6 62 62 N 8 13 30.13 1020 10 16 0.00 0.00
10:53 pm 22:53 Clear 73 22.8 55 12.8 53 53 NW 6 9 30.15 1021 10 16 0.00 0.00
11:53 pm 23:53 Clear 72 22.2 54 12.2 53 53 NNW 9 15 30.14 1021 10 16 0.00 0.00

Powered by AerisWeather